FENGYUN 1C DEB, 30315

Orbit data source: Space-Track

FENGYUN 1C DEB, 30315 is space debris in SSO originally from a launch on Mon, 10 May 1999 UTC launched from the Taiyaun Space Center, China (TSC). Fengyun 1C debris stems from the Chinese weather satellite Fengyun-1C, which was intentionally destroyed by a Chinese anti-satellite missile in 2007. This event dramatically increased the amount of space debris, with thousands of trackable fragments posing hazards to satellites and human spaceflight. The Fengyun 1C debris cloud has become a focal point in discussions about space sustainability and the need for international regulations to prevent the creation of new debris.

Loading next visibility...
Identifier
30315, 1999-025AAC
Orbit
SSO
Last TLE update
11 hours ago
Origin
Manufacturer
Unknown
Mission
Spacecraft
Bus & Motor
Unknown
Mass
Unknown
Launch date (UTC)
1999-05-10 (26 years ago)
Launch vehicle
Unknown
Launch site
Taiyaun Space Center, China (TSC)
Object type
Payload
Rocket body
Debris
Shape & HBR
Unknown
Radar Cross Section
Small (<0.1 m²)

Expand to show TLE details & history

TLE from 11 hours ago
0 FENGYUN 1C DEB
1 30315U 99025AAC 25181.82622361  .00000345  00000-0  18515-3 0  9999
2 30315  98.6050 196.1381 0036710 113.5257  64.2412 14.18826291953684
Epoch: 2025-06-30T19:49Z
TLE epoch observation values (Epoch: 2025-06-30T19:49:45.719Z)
Latitude
1.72689°
Longitude
159.82716°
Altitude
820.612 km
Speed
7.449 km/s
True Right ascension
01h 05m 35s
True Declination
1° 42' 60"
Sunlit
Object was in daylight at epoch
Visualization orbit readout
Latitude
-6.3299°
Longitude
-19.03196°
Altitude
845.815 km
Speed
7.423 km/s
Apparent Right ascension
10h 39m 55s
Apparent Declination
-31° 38' 23"
Sunlit
Object is in daylight
Visualization observer readout
Local Sidereal Time
18:26:39
Azimuth
258.338° W
Elevation
-39.039°
Doppler factor
1
Orbital elements
Apogee altitude
852.928 km
Perigee altitude
800.032 km
Semi-major axis
7,204.617 km
Eccentricity
0.00367
Inclination
98.605°
RAAN
196.1381°
Arg. of periapsis
113.5257°
True anomaly
Unknown
Mean anomaly
64.2412°
Eccentric anomaly
Unknown
Mean motion
3.54917 °/min
Orbital period
101.43 mins
BSTAR
0.00018515
Loading maneuver chart data...
Loading SW <> Apogee altitude chart data...
Loading historical data...
Loading historical data...
Loading historical data...
Loading historical data...
Loading historical data...
Loading historical data...
Loading historical data...

FENGYUN 1C DEB Visibility forecast

Observer location: undefined°, undefined°

Span
Click to sort rows by Start time (UTC) header in descending order
Start Az.
Max El. time (UTC)
Max El. Az.
Max El.
End time (UTC)
End Az.
5 mins2025-07-01 12:32:48.425Z63.834° ENE2025-07-01 12:34:48.425Z88.413° E14.844°2025-07-01 12:37:48.425Z124.553° SE
9 mins2025-07-01 14:11:48.425Z3.121° NNE2025-07-01 14:15:48.425Z280.88° WNW41.32°2025-07-01 14:20:48.425Z207.978° SW
7 mins2025-07-01 23:55:48.425Z107.576° ESE2025-07-01 23:58:48.425Z61.307° ENE23.599°2025-07-02 00:02:48.425Z11.726° NNE
8 mins2025-07-02 01:34:48.425Z199.465° SSW2025-07-02 01:38:48.425Z266.979° W32.198°2025-07-02 01:42:48.425Z326.738° NNW
|